User: anonymous   Login
Location: Unspecified
(0.0000°N, 0.0000°E)
Time: 06:54:49
(UTC+00:00)
Language:

USA 229 DEB - Orbit

View from above orbital plane
View from above orbital plane
View from above satellite
View from above satellite

Ground track
Ground track

The orbit data is extracted from the following two-line orbital elements,

1 37391U 11014B   18333.45787651 0.00000000  00000-0  00000-0 0    04
2 37391  63.4426 106.8609 0116000   0.2554 359.7445 13.40771670    07
Epoch (UTC): 29 November 2018 10:59:20
Eccentricity: 0.0116000
inclination: 63.4426°
perigee height: 1019 km
apogee height: 1193 km
right ascension of ascending node: 106.8609°
argument of perigee: 0.2554°
revolutions per day: 13.40771670
mean anomaly at epoch: 359.7445°
orbit number at epoch: 0

The dashed part of the orbit path shows where the satellite is in the earth's shadow,  

DLR